sat.trackr.live / text

‹ back to catalog

STARLINK-5289

NORAD 55278 · 2023-010K

PAYLOAD ACTIVE UNKNOWN

§ Identity

Operator
Country
US
Launch date
2023-01-19
Launch site
AFWTR
Launch vehicle
Mass (kg)
RCS (m²)

Purposes: comms

External: N2YO · Heavens-Above · Gunter

§ Orbital elements

Epoch: 2026-05-24T21:40:16.182912Z

Period
96.11 min
Inclination
69.9992°
Eccentricity
0.0003845
Mean motion
14.98326926 rev/d
Perigee alt
569.4 km
Apogee alt
574.7 km
Semi-major
6,950.2 km
B*
8.6400e-6
RAAN
212.2229°
Arg perigee
269.0303°
Mean anomaly
91.0416°
Rev number
18,419

§ Raw data

STARLINK-52891 55278U 23010K   26144.90296508  .00000010  00000+0  86400-5 0  99922 55278  69.9992 212.2229 0003845 269.0303  91.0416 14.98326926184190

JSON: /api/v1/satellites/55278 · /tle

For live sub-satellite position, see the globe view (requires WebGL).

§ Visibility from observer

Set your observer location to see the next 7 days of passes ≥ 10°. The values pass through the URL so the page stays shareable.

No JS? Fill the form by hand. The geolocation button needs JavaScript.